Flag for Germany Weather past 2 weeks in Wiehl, North Rhine-Westphalia, Germany

Now
57 °F

Fog.


Feels Like: 57 °F
Forecast: 46 / 66 °F
Wind: 2 mph from Southwest

Location: Koeln / Bonn

Current Time: Sep 1, 2015 at 10:58:14 PM

Latest Report: Sep 1, 2015 at 10:20 PM


Visibility: N/A

Pressure: 30.04 "Hg

Humidity: 94%

Dew point: 55 °F

Location of WiehlLocation

Historic Weather in Wiehl — Graph

°F

Wiehl temperature yesterday

Maximum temperature yesterday: 90 °F (at 2:20 PM)
Minimum temperature yesterday: 64 °F (at 4:50 AM)
Average temperature yesterday: 77 °F

Past Weeks' High & Low Weather Summary

 TemperatureHumidityPressure
High93 °F (Aug 30, 4:20 PM)100% (Sep 1, 8:20 AM)30.27 "Hg (Sep 1, 8:20 AM)
Low46 °F (Aug 19, 6:50 AM)26% (Aug 23, 3:20 PM)29.56 "Hg (Aug 24, 2:20 PM)
Average66 °F68%29.98 "Hg
* Reported Aug 17 9:20 PM — Sep 1 9:50 PM, Wiehl, Weather by CustomWeather, © 2015

Note: Actual official high and low records may vary slightly from our data, if they occured in-between our weather recording intervals... More about our weather records

Advertising

Wiehl weather history for previous 24 hours

 ConditionsComfort  
Time TempWeatherWind HumidityBarometerVisibility
9:50 PM
Tue, Sep 1
57 °FPassing clouds.2 mph94%30.04 "HgN/A
9:20 PM59 °FSprinkles. Partly cloudy.3 mph88%30.04 "HgN/A
8:50 PM61 °FSprinkles. Broken clouds.7 mph88%30.04 "HgN/A
8:20 PM61 °FScattered showers. Broken clouds.7 mph88%30.01 "HgN/A
7:50 PM61 °FScattered showers. Scattered clouds.8 mph83%30.01 "HgN/A
7:20 PM63 °FScattered clouds.6 mph83%29.98 "HgN/A
6:50 PM63 °FPartly sunny.5 mph83%29.98 "HgN/A
6:20 PM63 °FPartly sunny.6 mph83%29.98 "HgN/A
5:50 PM63 °FBroken clouds.9 mph83%29.98 "HgN/A
5:20 PM63 °FBroken clouds.9 mph83%29.95 "HgN/A
4:50 PM63 °FBroken clouds.9 mph83%29.95 "HgN/A
4:20 PM63 °FPartly sunny.12 mph88%29.95 "HgN/A
3:50 PM63 °FBroken clouds.14 mph88%29.95 "HgN/A
3:20 PM63 °FLight rain. Broken clouds.13 mph88%29.92 "HgN/A
2:50 PM61 °FLight rain. Broken clouds.13 mph94%29.92 "HgN/A
2:20 PM61 °FLight rain. Mostly cloudy.10 mph94%29.92 "HgN/A
1:50 PM61 °FRain. More clouds than sun.9 mph94%29.89 "HgN/A
1:20 PM61 °FRain. More clouds than sun.10 mph94%29.89 "HgN/A
12:50 PM61 °FRain. More clouds than sun.10 mph94%29.89 "Hg5 mi
12:20 PM61 °FLight rain. Broken clouds.10 mph94%29.86 "HgN/A
11:50 AM61 °FLight rain. Broken clouds.8 mph100%29.86 "HgN/A
11:20 AM61 °FRain. Mostly cloudy.10 mph94%29.83 "Hg6 mi
10:50 AM61 °FRain. Mostly cloudy.12 mph94%29.83 "Hg6 mi
10:20 AM61 °FRain. Fog.12 mph100%29.83 "Hg3 mi
9:50 AM63 °FRain. Mostly cloudy.7 mph94%29.83 "Hg4 mi
9:20 AM63 °FRain. Mostly cloudy.5 mph94%29.80 "Hg5 mi
8:50 AM63 °FRain. Mostly cloudy.5 mph94%29.83 "Hg5 mi
8:20 AM61 °FLight rain. More clouds than sun.6 mph100%29.80 "Hg6 mi
7:50 AM61 °FHeavy rain. Partly sunny.8 mph94%29.83 "Hg2 mi
7:20 AM63 °FHeavy rain. Partly cloudy.9 mph88%29.86 "Hg2 mi
6:50 AM64 °FPassing clouds.7 mph78%29.83 "HgN/A
5:50 AM64 °FOvercast.10 mph83%29.83 "HgN/A
5:20 AM66 °FOvercast.10 mph78%29.83 "HgN/A
4:50 AM66 °FOvercast.12 mph83%29.83 "HgN/A
4:20 AM66 °FPassing clouds.14 mph83%29.83 "HgN/A
3:50 AM68 °FPartly cloudy.17 mph78%29.83 "HgN/A
3:20 AM70 °FPartly cloudy.7 mph83%29.83 "HgN/A
2:50 AM70 °FPartly cloudy.7 mph78%29.83 "HgN/A
2:20 AM70 °FPartly cloudy.7 mph78%29.83 "HgN/A
1:50 AM70 °FPartly cloudy.7 mph78%29.83 "HgN/A
1:20 AM72 °FPartly cloudy.8 mph73%29.86 "HgN/A
12:50 AM72 °FPassing clouds.8 mph73%29.83 "HgN/A
12:20 AM72 °FPassing clouds.10 mph73%29.83 "HgN/A
11:50 PM
Mon, Aug 31
70 °FClear.7 mph78%29.83 "Hg10 mi
11:20 PM70 °FClear.7 mph78%29.83 "Hg10 mi
10:50 PM72 °FClear.7 mph73%29.83 "Hg10 mi
10:20 PM72 °FClear.6 mph73%29.83 "Hg10 mi
Weather by CustomWeather, © 2015

See weather overviewHow to use our weather pages